Location: San Antonio
(29.4240°N, 98.4930°W)
Time: 14:57:17
(UTC-05:00)

BlueWalker 3 - Pass Details

Date: 22 June 2024
Orbit: 480 x 492 km, 53.2° (Epoch: 11 July)

Event Time Altitude Azimuth Distance (km) Brightness Sun altitude
Rises 21:17:38 0° 258° (WSW) 2,536 6.3 -8.4°
Reaches altitude 10° 21:20:23 10° 279° (W) 1,656 5.8 -8.9°
Maximum altitude 21:22:53 17° 321° (NW) 1,290 5.2 -9.4°
Drops below altitude 10° 21:25:22 10° 3° (N) 1,656 5.0 -9.8°
Sets 21:28:08 0° 25° (NNE) 2,535 5.6 -10.3°
